RH
37 22 26 53 68 67 83 89 75 63 29 30 34 50 82 91 91 50 46 57 84 86 56 61 49 75 100 93 72 64 55 47 44 44 45 44 48 49 53 70 73 93 97 100
27 38 70 83 82 89 100 100 96 77 74 44 61 69 95 100 93 63 56 57 71 63 63 66 62 100 98 76 64 57 50 46 45 43 53 54 68 60 58 52 93 94 99 98
67 79 75 88 97 98 100 96 90 91 87 54 49 94 99 90 92 53 40 40 46 58 59 75 99 99 96 58 52 48 46 48 46 54 73 62 52 51 57 96 96 99 95 100
90 84 98 100 95 94 88 78 78 90 80 79 45 70 90 81 81 52 40 43 51 56 86 96 97 94 48 46 44 44 56 50 46 49 50 48 45 57 97 97 96 100 99 98
90 98 95 99 94 86 64 76 72 79 73 75 89 99 80 66 76 56 55 62 72 80 92 96 85 41 36 35 37 39 48 56 55 51 45 81 76 92 61 96 100 97 100 97
89 85 84 70 77 79 65 71 65 68 76 82 97 97 69 61 58 69 71 68 67 62 46 46 46 44 43 52 52 55 55 52 54 47 100 99 98 99 99 98 99 98 91 97
73 75 66 66 78 70 68 64 59 64 81 95 90 94 96 87 80 79 64 48 41 38 37 39 57 55 47 55 67 90 82 98 98 99 92 89 98 99 98 96 95 96 74 72
56 59 64 67 64 71 84 86 67 63 87 92 86 81 89 96 96 100 98 93 77 85 93 96 98 97 96 98 97 96 98 98 98 96 89 98 91 91 95 83 65 73 74 83
58 74 66 60 68 76 81 88 87 76 80 89 97 96 86 94 95 88 79 82 87 96 76 76 99 100 95 91 86 84 80 82 87 93 90 92 79 53 63 72 69 84 78 64
61 55 50 54 66 79 85 87 88 86 86 86 96 99 96 97 96 89 88 87 95 96 97 96 96 95 93 95 96 96 94 93 88 62 41 46 58 67 71 83 81 64 63 62
55 59 56 56 62 76 85 82 82 80 87 91 93 89 98 98 99 97 94 92 91 90 91 91 89 91 92 92 91 75 49 40 45 51 56 65 77 85 81 64 64 62 52 39
56 51 42 48 60 76 90 89 91 90 87 97 98 98 96 98 98 98 98 98 98 98 91 77 60 47 40 40 43 46 46 48 54 67 83 87 78 61 64 65 55 42 34 30
52 38 39 44 53 83 93 91 98 96 95 92 97 100 100 98 100 99 84 82 87 86 52 43 46 47 44 40 40 48 70 87 88 88 75 59 65 68 61 50 39 37 32 25
41 36 45 44 51 84 98 96 96 98 92 89 94 95 100 100 98 92 65 53 52 53 48 39 38 47 60 67 74 82 85 84 71 57 64 67 63 56 46 42 41 37 30 23
36 49 53 46 57 82 96 93 98 99 95 93 85 93 100 97 83 78 68 61 54 42 40 51 60 65 69 73 78 82 73 58 64 71 69 65 54 47 46 46 41 30 21 11
64 72 70 73 80 92 97 87 97 100 96 99 100 100 97 91 85 86 75 69 63 54 57 62 68 74 78 81 78 62 60 74 74 71 65 54 51 51 47 37 26 14 12 11
75 72 71 79 89 94 93 95 96 97 98 100 100 100 100 96 94 92 86 78 68 66 68 75 81 86 86 75 60 75 81 78 74 64 56 57 54 46 35 24 16 15 14 11
77 67 72 84 88 94 94 98 98 98 98 99 100 100 100 97 96 98 94 81 79 82 85 89 91 86 72 64 80 83 80 76 66 61 61 53 43 36 24 20 19 16 12 9
90 90 94 98 98 98 96 99 99 97 95 99 100 100 100 99 98 98 97 96 95 95 99 100 94 77 68 84 87 83 77 70 66 62 50 40 33 28 26 21 15 12 9 5
97 99 99 99 98 98 98 98 98 99 98 98 99 99 99 99 99 98 98 99 98 100 100 100 87 72 90 90 85 79 71 68 61 46 40 36 31 29 22 16 12 9 4 2
99 99 99 99 99 99 99 99 100 100 100 100 100 100 100 100 98 98 100 100 100 100 100 94 83 95 93 86 82 73 68 62 51 48 46 38 30 24 19 14 9 3 2 3
98 99 100 100 99 99 99 99 100 100 100 100 100 100 100 100 99 100 100 100 100 97 90 89 97 95 87 83 77 70 69 64 61 60 50 35 31 22 15 12 4 2 3 5
97 93 92 94 96 98 100 100 100 100 100 100 100 98 97 98 97 96 98 90 81 80 90 97 96 90 83 80 75 75 76 72 69 59 40 37 28 16 13 7 3 4 17 36
100 100 100 98 98 100 100 100 100 98 98 100 100 100 100 100 92 80 77 82 93 100 98 98 95 86 82 80 80 82 79 73 67 49 45 35 22 14 12 4 13 32 33 37
90 98 100 100 100 95 94 94 97 100 100 100 100 100 96 80 77 75 78 92 98 99 97 99 95 86 85 86 88 82 74 67 58 51 44 29 18 15 7 10 31 29 26 27
78 78 78 85 91 99 99 97 95 91 90 93 93 89 82 78 78 82 88 98 100 100 100 100 97 93 92 92 84 77 65 62 56 50 36 24 16 12 5 25 37 45 53 61
68 62 62 65 68 72 85 88 82 91 93 89 86 85 85 84 90 97 100 100 100 100 100 100 100 95 89 86 82 75 71 64 53 40 29 19 16 7 6 38 46 55 64 67
Wind_Speed
21 19 18 18 20 23 24 28 32 27 34 35 41 47 47 41 23 26 29 30 24 22 30 33 33 34 33 38 36 38 38 36 36 37 40 38 36 36 34 34 35 38 43 41
19 16 16 17 20 18 20 20 24 28 32 37 43 41 35 35 20 21 13 11 15 20 18 20 24 30 27 31 33 36 35 33 34 36 35 32 33 33 34 34 34 38 34 45
17 14 14 11 12 12 15 20 23 27 29 27 32 37 36 21 18 7 1 7 7 8 9 20 23 25 27 27 28 29 28 30 30 29 29 31 32 32 26 31 41 44 48 45
14 12 10 7 7 10 15 21 21 24 25 24 31 33 21 21 9 9 13 11 10 9 18 20 24 23 22 22 23 25 25 24 24 27 28 28 25 34 30 37 42 44 42 42
10 9 8 6 9 10 14 16 21 25 23 18 27 26 12 14 16 25 23 20 19 22 18 21 21 18 17 17 17 19 19 20 23 22 22 23 25 34 36 41 43 44 41 39
10 8 8 8 8 10 11 15 19 22 19 22 25 22 12 19 20 15 19 22 24 19 18 18 18 16 14 12 13 13 13 16 18 20 35 41 31 34 43 41 39 36 37 41
8 6 7 9 7 8 11 13 15 19 15 16 20 20 11 20 15 16 19 18 20 17 12 11 11 13 12 15 15 14 17 32 32 37 29 34 32 34 33 32 34 37 39 40
7 6 7 6 7 9 12 13 13 15 12 10 13 17 12 13 14 18 11 14 17 17 7 9 24 23 17 26 22 21 17 20 28 29 33 30 30 29 30 33 35 36 38 42
6 4 3 8 9 9 11 12 11 11 12 11 9 12 12 12 9 5 5 4 7 10 8 6 9 12 13 15 21 25 24 19 21 25 25 25 27 29 31 33 35 38 41 42
6 1 5 9 9 7 7 10 11 12 9 8 6 6 11 9 6 8 10 11 10 8 6 6 8 8 7 8 10 13 15 16 18 21 23 25 28 29 31 34 37 39 38 39
11 8 10 10 8 7 6 9 12 10 8 6 3 2 5 6 6 5 7 8 8 7 6 4 4 4 5 7 9 11 14 17 20 22 24 26 28 30 33 35 34 35 38 41
16 11 14 13 10 10 9 9 9 10 7 8 6 5 4 4 4 4 5 5 5 4 3 3 2 3 5 8 11 14 16 19 21 23 24 26 29 31 31 31 33 37 42 47
15 15 15 14 13 13 13 12 12 10 10 9 7 4 4 3 1 3 4 5 5 2 1 3 5 7 10 13 15 17 18 20 22 24 26 28 28 27 30 33 36 41 46 52
17 17 15 14 14 14 15 13 15 12 11 9 7 7 8 8 3 5 3 2 2 4 6 8 9 11 13 16 18 19 21 22 24 26 26 25 26 30 33 37 43 48 53 59
18 16 14 12 14 16 16 16 18 15 11 9 7 4 5 6 5 2 2 4 7 9 10 11 13 14 16 18 19 21 22 24 25 23 23 26 29 34 39 44 49 53 58 64
17 15 14 14 15 13 13 14 14 13 10 8 7 7 9 8 7 6 7 9 11 12 13 14 15 16 18 19 21 22 23 22 22 23 26 30 35 40 44 48 53 57 64 72
20 20 18 17 16 14 14 13 12 12 13 16 14 13 14 13 12 13 12 13 14 14 15 15 17 18 19 20 22 23 21 21 24 27 31 36 40 44 48 53 57 66 73 82
19 18 20 18 16 15 13 13 12 13 15 16 17 17 15 13 12 13 14 15 16 17 17 18 19 20 21 22 23 21 22 24 27 31 36 40 45 48 54 58 66 73 81 92
16 14 16 17 16 16 14 13 14 15 13 12 13 14 14 15 16 15 16 18 18 20 21 21 21 22 22 23 21 22 23 26 31 35 39 44 48 53 58 66 72 81 92 90
19 18 16 15 16 15 18 20 16 13 13 15 16 18 15 15 16 17 19 20 21 23 24 22 21 22 23 21 21 22 25 29 33 37 42 48 54 58 65 72 79 92 90 71
11 11 11 12 13 13 13 13 13 13 13 14 15 16 16 17 19 21 23 22 23 22 21 21 22 22 20 22 22 24 27 30 34 41 47 53 57 63 70 76 88 85 65 36
9 9 10 10 11 12 14 14 14 15 16 18 19 20 20 19 20 21 21 20 19 20 21 22 22 20 21 21 23 27 29 34 39 45 51 54 60 68 72 85 79 57 31 15
12 13 14 14 15 15 16 17 17 18 19 18 19 17 18 19 19 18 18 18 20 21 23 23 20 21 21 23 26 29 33 38 42 47 52 57 63 68 78 77 52 23 14 13
17 17 17 17 17 17 19 19 20 20 20 19 19 19 18 18 18 18 19 20 22 23 24 21 21 22 23 26 29 33 37 40 44 49 53 58 65 68 79 52 21 12 12 10
24 23 23 22 20 21 21 21 20 19 20 19 19 20 20 20 21 21 22 24 24 25 23 22 23 24 25 28 32 35 39 43 46 50 54 59 64 72 64 27 10 10 10 9
32 31 29 27 27 27 27 25 23 22 22 22 22 23 23 23 23 23 24 26 25 25 24 24 25 25 28 30 34 36 40 44 47 52 55 61 65 71 45 14 7 6 7 7
37 39 39 38 36 33 31 30 30 29 27 26 25 25 25 26 25 24 25 25 25 25 25 25 25 26 29 32 35 38 43 45 48 52 57 62 70 62 28 11 7 5 5 6
Wind_Direction
260 266 278 287 285 292 303 309 311 318 311 319 318 318 321 314 305 297 288 272 259 237 233 242 242 222 214 208 203 206 212 219 227 234 239 245 250 256 262 267 272 278 281 282
251 268 273 276 291 302 305 308 318 308 313 319 327 326 329 319 341 312 300 274 244 235 227 239 232 203 204 199 203 206 212 220 228 236 244 250 254 259 266 273 286 287 282 278
264 264 271 282 301 305 318 325 329 336 331 333 334 347 352 345 324 324 257 259 176 182 208 226 189 186 185 193 200 205 212 222 231 237 244 251 256 263 271 251 278 280 283 286
255 266 271 293 306 323 338 344 343 344 341 332 335 342 354 357 21 86 84 96 124 168 173 160 164 168 181 186 197 205 211 223 232 239 245 252 261 262 248 276 281 282 283 287
236 241 264 300 314 325 349 354 353 354 356 349 352 351 29 33 81 94 99 112 123 132 126 149 156 168 174 186 199 208 217 226 232 241 250 257 251 264 281 275 277 287 288 290
231 250 276 306 310 331 336 341 347 360 9 4 17 30 61 77 68 77 110 121 130 139 145 155 168 176 182 185 199 204 211 227 226 244 256 237 248 249 268 281 283 286 291 292
230 244 271 283 308 340 357 4 354 9 19 26 31 39 54 84 82 115 121 128 129 118 118 138 142 142 149 173 185 209 201 227 229 236 263 280 281 280 281 285 288 290 293 296
242 251 273 300 331 338 355 7 15 5 19 33 19 31 59 72 73 71 88 124 144 125 161 173 161 173 196 199 188 212 235 222 245 272 276 273 275 279 284 288 292 294 297 301
220 228 290 335 336 341 348 0 20 13 9 28 29 27 33 49 67 117 159 179 142 141 173 183 195 205 221 222 249 266 271 266 261 263 268 276 283 287 290 292 296 301 304 305
206 257 312 335 336 345 345 357 14 14 15 27 51 101 32 51 72 89 98 104 111 124 152 177 197 200 200 212 227 245 259 267 274 279 283 287 290 292 296 300 303 304 305 306
246 275 298 303 319 318 316 334 342 351 359 11 26 350 21 55 79 109 120 121 124 126 131 150 179 207 230 246 256 262 270 275 281 287 291 294 296 300 302 304 306 307 308 310
257 279 285 285 289 288 298 305 313 317 317 305 334 10 13 48 57 85 101 111 119 118 123 147 194 239 259 272 279 286 291 295 296 296 297 300 304 306 307 307 308 310 312 314
266 281 290 277 270 267 276 284 296 297 293 296 293 286 300 290 235 163 135 113 108 111 267 290 298 298 300 302 303 305 304 302 302 304 305 308 308 308 308 309 311 312 314 315
261 273 278 267 260 258 263 277 295 291 278 283 278 283 270 259 207 128 91 38 327 307 298 303 307 311 311 310 307 304 303 305 306 308 308 307 308 309 310 312 314 315 316 317
265 264 262 260 256 258 271 277 283 280 268 283 292 305 256 194 167 169 287 308 310 309 313 315 314 312 311 309 306 306 308 309 309 308 308 310 312 314 316 317 317 317 318 319
251 259 255 246 247 264 277 272 286 263 248 251 263 282 227 202 221 238 300 309 313 312 312 312 312 310 309 307 308 310 310 310 311 312 314 317 320 320 319 320 319 319 319 318
253 255 251 246 252 267 264 277 269 246 245 255 278 259 236 224 241 261 290 304 305 306 308 307 307 306 307 309 310 311 312 313 315 318 320 322 321 321 322 320 319 319 318 318
256 256 242 242 257 260 262 264 257 250 258 256 251 246 243 248 261 274 289 295 298 301 301 300 303 306 308 311 312 313 315 317 319 322 323 323 323 323 324 321 320 319 319 319
247 239 237 243 249 249 242 251 254 260 257 250 249 246 248 258 270 277 285 289 293 296 294 295 299 304 307 310 312 314 316 319 323 324 325 327 327 325 324 323 322 322 322 319
240 238 236 234 234 240 242 247 263 258 254 246 249 257 263 268 276 283 288 291 294 296 290 289 298 303 308 309 311 316 319 322 325 328 330 330 329 327 326 327 326 325 322 324
233 234 230 232 234 237 237 237 235 235 239 247 255 266 277 284 286 287 290 294 295 289 287 295 299 305 306 307 313 317 319 321 325 329 330 330 330 330 331 330 330 327 328 333
238 232 234 236 240 240 239 246 250 256 263 269 276 281 283 287 289 292 292 291 290 292 295 297 301 302 303 309 313 313 316 318 322 325 328 330 332 334 334 333 332 333 343 10
262 263 264 262 261 261 262 264 267 269 273 279 282 282 286 287 285 288 286 288 291 293 294 296 296 299 303 308 310 313 317 321 324 327 329 332 335 337 335 338 336 351 35 59
250 255 259 262 262 262 261 263 265 268 273 277 278 280 279 279 281 281 283 289 293 294 294 292 294 299 303 307 310 315 319 324 326 327 331 334 337 337 339 338 348 26 35 37
246 248 250 255 259 259 260 262 263 266 267 270 275 276 278 280 281 282 285 290 290 293 290 289 294 299 302 306 312 318 323 325 327 330 333 335 337 338 339 334 345 12 25 32
250 251 252 254 257 260 262 263 266 266 268 269 271 274 276 278 280 282 285 290 290 290 288 289 294 299 304 310 315 320 325 327 330 333 333 335 335 338 334 311 317 353 9 16
255 256 259 261 260 260 260 262 264 263 264 265 267 270 273 274 276 280 285 290 288 289 285 287 293 300 307 311 316 320 324 328 332 332 333 335 334 334 322 277 279 319 345 359